Location: Hermaringen
(48.5952°N, 10.2585°E)
Time: 02:54:45
(UTC+00:00)

USA 215 - Pass Details

Date: 18 November 2025
Orbit: 1101 x 1106 km, 123.0° (Epoch: 02 December)

Event Time Altitude Azimuth Distance (km) Brightness Sun altitude
Rises 17:45:12 0° 151° (SSE) 3,909 5.9 -21.1°
Reaches altitude 10° 17:47:51 10° 159° (SSE) 2,955 5.4 -21.5°
Maximum altitude 17:53:55 40° 228° (SW) 1,565 4.4 -22.5°
Drops below altitude 10° 18:00:02 10° 296° (WNW) 2,971 6.3 -23.6°
Sets 18:02:43 0° 304° (NW) 3,933 7.0 -24.0°
